FLOCK 3R-6 (43741 NORAD) Tracking and Keplerian Element Data

This shows tracking and keplerian element data for the satellite.

Feedback or suggestion? Click here.




ElementValue
Catalog43741
NameFLOCK 3R-6
Epoch Orbit457
Epoch Day363.14205918
Epoch Year2018
RAAN68.1631
Inclination97.4809
Eccentricity0.0017697
Argument of Perigee216.1542
Mean Anonmoly224.9281
Mean Motion15.26096344
Decay Rate9.3E-06
L11 43741U 18096Y 18363.14205918 .00000930 00000-0 38830-4 0 9992
L22 43741 97.4809 68.1631 0017697 216.1542 224.9281 15.26096344 4578

Live tracking and technical data element details for FLOCK 3R-6 (NORAD 43741). FLOCK 3R-6 can be tracked NOW for your location showing map with azimuth and elevation plus other details from your city location.

Track the satellite on the map from your city or location and see movement details for azimuth, elevation, latitude, longitude, range, height, and movement on the map or in text.







IsCatalogInMostPopularTable: catalog: 43741, numindb: 122
Update: records affected: 1



GetName: 43741 FLOCK 3R-6

Hit Count: updated at: Tue, 16 Jul 2019 14:58:37 GMT